Wind_Speed
23 24 25 26 27 28 27 25 25 24 24 25 25 25 25 25 25 22 21 19 18 16 14 13 12 10 11 10 10 11 12 13 14
25 26 26 27 28 30 29 28 27 27 27 27 28 27 26 26 24 22 20 18 18 17 15 13 11 10 10 9 9 9 11 11 12
30 31 32 30 29 33 35 32 30 30 29 27 27 25 24 24 24 22 19 18 17 16 15 13 12 10 9 8 8 8 9 10 11
29 37 37 34 33 31 38 38 35 31 28 25 25 23 23 24 24 22 21 19 17 16 15 14 12 11 10 9 9 9 10 10 10
32 42 40 36 35 29 36 39 39 38 33 26 25 24 23 23 23 22 20 18 16 16 14 14 14 13 12 11 10 10 10 10 10
18 29 32 35 34 28 29 35 38 32 32 29 26 25 24 23 23 21 19 18 16 15 14 13 14 13 13 12 11 11 10 9 9
12 16 31 37 34 33 31 33 36 39 34 30 26 25 24 23 22 21 21 20 19 17 15 14 13 13 14 13 12 12 11 10 9
11 20 29 24 25 30 35 36 38 40 35 30 28 25 23 22 22 20 22 20 17 17 18 16 15 15 15 16 14 13 13 13 13
12 20 19 24 27 30 33 38 33 32 32 30 27 25 24 23 21 21 21 18 17 19 18 18 16 18 18 18 18 17 15 13 10
16 11 18 26 24 20 2 7 25 29 26 27 24 21 21 22 22 23 23 22 22 22 21 19 21 21 21 22 18 14 12 11 10
20 13 16 13 17 17 20 26 29 26 28 27 19 21 19 20 21 23 24 24 25 24 22 24 23 23 22 20 16 14 13 12 11
24 20 18 19 20 21 21 30 34 33 29 31 25 23 22 21 21 22 25 28 27 26 25 22 22 22 20 19 17 15 14 12 12
26 25 24 24 25 24 24 28 27 25 24 26 31 32 24 26 25 24 28 30 26 32 24 23 19 20 20 19 17 15 13 13 13
29 28 29 28 29 30 30 30 28 27 27 26 26 38 35 34 35 32 32 29 32 26 19 22 25 24 21 20 18 17 17 16 16
34 33 34 34 33 31 32 32 33 32 28 28 30 30 32 33 26 33 34 32 35 24 24 26 23 25 25 25 24 23 21 19 19
39 38 38 37 35 35 34 34 35 36 31 28 32 33 44 38 35 37 38 37 38 39 38 36 32 33 31 27 24 23 23 22 19
48 40 41 41 41 39 38 38 39 40 33 34 35 43 36 43 40 43 45 41 44 43 39 34 31 28 30 27 22 24 27 24 23
47 47 42 44 42 41 42 42 41 41 36 34 38 39 53 38 42 45 41 49 43 36 28 28 23 25 20 23 27 26 27 25 25
48 53 50 48 43 43 42 44 41 44 38 38 40 36 46 32 35 35 45 45 39 37 28 28 29 27 24 26 25 25 25 25 24
55 55 49 50 58 51 48 49 49 46 40 38 40 39 38 37 39 43 54 49 36 29 30 30 32 30 28 28 27 26 26 25 24
Wind_Direction
217 211 208 202 199 193 190 188 185 182 182 182 180 180 179 175 176 175 177 175 167 163 159 153 146 140 128 120 112 108 104 100 96
224 220 211 208 205 194 191 188 184 183 183 183 184 184 183 181 180 183 184 178 171 169 169 166 162 153 137 136 127 121 116 110 105
223 217 212 207 208 202 195 186 184 181 183 184 187 187 182 180 185 185 187 186 176 175 175 174 171 163 156 150 140 135 127 123 117
230 220 210 203 207 205 200 191 178 178 177 184 188 185 182 181 183 184 188 188 189 185 183 183 181 177 168 161 153 147 138 132 126
251 220 204 201 203 201 195 195 185 181 176 182 185 182 182 179 179 179 181 180 181 183 183 181 180 176 172 166 162 156 149 143 135
212 203 206 199 205 205 210 192 197 185 177 187 187 183 178 175 178 175 177 181 177 176 173 174 171 172 170 167 165 162 157 152 143
219 221 204 193 197 206 210 208 199 202 177 184 187 185 179 178 178 179 181 187 181 178 176 173 173 167 164 162 160 157 157 155 146
229 209 218 217 205 208 215 185 189 182 175 181 186 186 180 178 176 179 186 183 185 181 182 182 177 174 171 166 159 152 146 144 134
235 212 211 189 156 169 183 177 180 180 182 184 182 182 179 183 184 181 185 188 194 189 189 192 188 182 175 171 166 153 145 144 138
244 246 206 192 242 271 199 181 191 181 187 182 176 182 189 191 196 200 201 204 199 199 193 190 182 177 168 164 167 172 171 174 170
235 229 196 203 180 183 188 180 197 197 206 185 180 183 197 204 206 205 196 193 195 198 200 191 185 182 179 182 192 196 198 201 199
230 222 202 205 189 192 189 196 196 203 213 199 183 193 199 201 213 208 189 196 208 201 195 194 185 187 195 204 210 212 212 211 215
226 221 209 206 203 199 199 202 207 210 216 202 199 199 205 205 210 199 192 202 199 192 186 191 203 210 212 215 220 225 224 220 219
223 222 214 209 210 208 203 207 210 216 219 224 217 212 215 216 210 214 215 206 199 204 231 219 229 225 220 223 230 235 235 234 237
221 218 216 214 210 214 214 213 216 215 222 230 235 215 215 213 216 213 212 213 225 217 203 208 227 229 233 237 241 242 238 242 244
222 221 216 215 214 211 220 219 218 217 223 223 231 247 221 223 215 219 228 217 232 228 235 233 231 235 242 242 238 246 241 246 246
225 210 223 216 215 219 221 218 217 224 233 228 224 205 224 219 214 211 221 210 223 227 237 232 227 233 221 223 227 238 232 241 245
240 213 208 221 223 225 227 225 224 228 233 232 229 235 208 229 226 216 230 227 220 224 227 223 233 237 238 229 234 234 234 242 243
224 229 228 213 219 222 229 225 234 228 237 232 238 234 227 247 224 245 223 213 220 226 230 236 249 242 237 239 240 238 238 237 240
241 224 210 217 221 223 222 233 231 221 231 232 234 231 231 232 248 237 212 217 225 235 231 253 247 239 235 235 237 238 239 240 242
Height
3130 3131 3134 3136 3138 3141 3144 3147 3150 3153 3155 3157 3160 3163 3165 3168 3170 3172 3174 3176 3179 3181 3182 3184 3185 3186 3187 3188 3189 3189 3190 3190 3190
3127 3128 3131 3133 3135 3137 3141 3144 3147 3150 3153 3155 3158 3161 3164 3167 3170 3172 3173 3177 3178 3180 3182 3184 3185 3186 3188 3189 3189 3190 3191 3191 3192
3121 3123 3125 3129 3131 3134 3137 3139 3145 3147 3149 3154 3157 3160 3163 3166 3168 3171 3174 3176 3178 3180 3182 3183 3185 3187 3188 3189 3190 3191 3192 3193 3193
3116 3117 3119 3123 3127 3129 3133 3135 3138 3143 3147 3151 3156 3159 3162 3165 3167 3169 3173 3175 3177 3179 3181 3183 3185 3186 3187 3189 3190 3191 3192 3194 3194
3109 3110 3113 3116 3121 3125 3129 3131 3135 3138 3143 3148 3154 3157 3160 3163 3165 3168 3171 3174 3176 3178 3180 3182 3184 3186 3187 3189 3190 3191 3193 3194 3195
3102 3106 3108 3113 3118 3122 3125 3128 3134 3138 3140 3147 3152 3156 3159 3162 3164 3167 3170 3173 3175 3177 3179 3181 3183 3185 3187 3188 3190 3191 3193 3194 3195
3104 3101 3104 3110 3114 3119 3121 3124 3129 3135 3139 3145 3150 3155 3158 3161 3163 3166 3169 3172 3174 3177 3178 3181 3183 3185 3186 3188 3190 3191 3193 3194 3195
3105 3103 3101 3106 3111 3114 3117 3121 3125 3132 3137 3143 3148 3153 3157 3160 3162 3165 3168 3170 3172 3174 3177 3179 3182 3184 3186 3188 3190 3191 3193 3194 3195
3103 3105 3105 3105 3102 3110 3115 3121 3127 3132 3136 3141 3144 3151 3155 3159 3162 3164 3167 3169 3172 3174 3176 3178 3180 3182 3185 3187 3189 3191 3193 3195 3196
3100 3101 3103 3105 3106 3111 3116 3121 3126 3130 3136 3138 3141 3150 3154 3157 3160 3163 3165 3167 3170 3172 3174 3176 3178 3180 3184 3186 3188 3191 3192 3194 3196
3097 3099 3103 3106 3107 3109 3115 3118 3125 3129 3134 3138 3141 3146 3151 3155 3157 3159 3162 3165 3167 3169 3172 3174 3177 3180 3183 3185 3187 3189 3191 3193 3194
3093 3096 3100 3104 3107 3110 3114 3119 3122 3124 3128 3134 3139 3145 3150 3152 3155 3158 3161 3162 3164 3166 3169 3173 3177 3179 3182 3184 3186 3188 3190 3191 3193
3091 3092 3096 3099 3105 3109 3112 3117 3120 3123 3128 3130 3136 3141 3146 3149 3151 3156 3158 3160 3158 3162 3167 3170 3173 3176 3179 3181 3184 3186 3188 3189 3191
3087 3089 3092 3096 3100 3104 3109 3113 3117 3120 3123 3128 3133 3136 3140 3143 3147 3150 3153 3156 3156 3157 3163 3168 3171 3173 3175 3178 3181 3183 3185 3186 3188
3080 3084 3088 3092 3096 3100 3104 3108 3112 3116 3120 3124 3128 3130 3135 3137 3140 3146 3148 3151 3155 3156 3158 3162 3166 3169 3171 3173 3176 3178 3180 3183 3185
3071 3077 3082 3086 3090 3094 3098 3103 3107 3111 3114 3120 3124 3124 3127 3133 3136 3140 3143 3147 3150 3153 3155 3158 3162 3165 3166 3168 3171 3174 3176 3178 3180
3058 3065 3075 3078 3083 3086 3090 3096 3100 3105 3108 3113 3120 3120 3122 3125 3127 3133 3135 3137 3143 3147 3150 3154 3156 3159 3161 3163 3166 3168 3171 3173 3174
3053 3054 3061 3072 3075 3080 3085 3088 3093 3098 3103 3108 3111 3114 3115 3118 3121 3125 3127 3131 3136 3138 3142 3145 3149 3152 3154 3159 3161 3163 3165 3167 3169
3046 3052 3051 3057 3064 3070 3076 3081 3085 3090 3095 3097 3102 3105 3109 3111 3112 3118 3121 3126 3130 3134 3136 3140 3144 3146 3147 3152 3155 3158 3160 3162 3164
3038 3039 3038 3045 3051 3060 3066 3070 3075 3080 3085 3089 3094 3096 3099 3105 3108 3111 3113 3118 3121 3127 3130 3135 3139 3141 3143 3146 3148 3151 3154 3156 3158